Regional Weather Roundup
Issued by NWS

Home | Current Version | Previous Version | Graphics & Text | Print | Product List | Glossary On
Versions: 1 2 3 4 5 6 7 8 9 10 11 12 13 14 15 16 17 18 19 20 21 22 23 24 25 26 27 28 29 30 31 32 33 34 35 36 37 38 39 40 41 42 43 44 45 46 47 48 49 50
000
ASUS45 KBOU 051807
RWRCO

WEATHER ROUNDUP FOR COLORADO
NATIONAL WEATHER SERVICE DENVER/BOULDER CO
1100 AM MST FRI FEB 05 2016

NOTE: "FAIR" INDICATES FEW OR NO CLOUDS BELOW 12000 FEET WITH NO
SIGNIFICANT WEATHER AND/OR OBSTRUCTIONS TO VISIBILITY.

COZ001>005-013-030-031-051900-
...NORTHWEST COLORADO...

CITY           SKY/WX    TMP DP  RH WIND       PRES   REMARKS
CRAIG          LGT SNOW  16  12  84 CALM      30.49R FOG
HAYDEN         CLOUDY    16   9  73 CALM      30.47R
MEEKER         MOSUNNY   16  12  84 CALM      30.48R
MOUNT WERNER   NOT AVBL
STEAMBOAT SPGS CLOUDY    14   8  79 CALM      30.44F
WALDEN         SUNNY     12   1  62 SE6       30.36S WCI   3
$$

COZ006>008-011-051900-
...WEST CENTRAL VALLEYS...

CITY           SKY/WX    TMP DP  RH WIND       PRES   REMARKS
GRAND JUNCTION SUNNY     20  15  81 CALM      30.59R
MONTROSE       SUNNY     17  10  74 CALM      30.57R
EAGLE          SUNNY     28  12  50 CALM      30.52R
RIFLE          SUNNY     17  11  77 CALM      30.56S
DELTA          SUNNY     22  13  69 NE3       30.58S
NUCLA          LGT SNOW  18  12  79 CALM      30.57R
$$

COZ017>023-064>068-051900-
...SOUTHWEST COLORADO...

CITY           SKY/WX    TMP DP  RH WIND       PRES   REMARKS
DURANGO        SUNNY     14   4  64 NE7       30.41R WCI   4
CORTEZ         SUNNY     31  13  47 NW10      30.44F WCI  22
PAGOSA SPRINGS SUNNY     20   8  60 CALM      30.35S
TELLURIDE      SUNNY     18   5  56 CALM      30.39R
WOLF CREEK PAS SUNNY      9  -6  52 NE15      30.26R WCI  -8
$$

COZ009-010-012-014-032>034-037-058>063-051900-
...CENTRAL COLORADO...

CITY           SKY/WX    TMP DP  RH WIND       PRES   REMARKS
ASPEN          CLOUDY    14   7  73 NW5       30.42R WCI   6
BUENA VISTA    SUNNY     23   4  44 NW23      30.30R WCI   7
COPPER MTN     CLOUDY     7   0  72 NW9       30.23R WCI  -7
BERTHOUD PASS  CLOUDY     0 -13  55 N18       30.18R WCI -22
COTTONWOOD PAS SUNNY     21   1  42 CALM      30.26R
GUNNISON       CLOUDY    -8 -11  84 SE3       30.48R
KREMMLING      CLOUDY     7  -4  61 CALM      30.46R
LEADVILLE      CLOUDY    13   0  56 NW12      30.28R WCI  -1
MONARCH PASS     N/A      1  -2  85 MISG      30.31R
SALIDA         SUNNY     27   4  37 CALM      30.41R
SUNLIGHT       LGT SNOW N/A N/A N/A NW3         N/A
WILKERSON PASS SUNNY     12  -2  52 N8        30.23R WCI   1
$$

COZ069>075-051900-
...SAN LUIS VALLEY/SANGRE DE CRISTO MOUNTAINS...

CITY           SKY/WX    TMP DP  RH WIND       PRES   REMARKS
ALAMOSA        SUNNY     18   4  54 S5        30.33R WCI  11
LA VETA PASS   CLOUDY    21   5  49 MISG      30.23S
SAGUACHE       SUNNY     23   5  46 NW14G23   30.33R WCI  11
$$

COZ035-036-038>040-051900-
...NORTHERN COLORADO FRONT RANGE...

CITY           SKY/WX    TMP DP  RH WIND       PRES   REMARKS
DENVER INTL AP MOSUNNY   33   7  33 W7        30.33R WCI  27
DMNS CITY PARK   N/A     37   3  23 N8        30.33S
AURORA         MOSUNNY   32   8  37 NW6       30.33R WCI  26
FRONT RANGE AP PTSUNNY   30  12  47 MISG      30.33R
ERIE MUNI ARPT SUNNY     37   4  25 CALM      30.33S
BOULDER MUN AP SUNNY     37   5  25 SE7       30.31S
CENTENNIAL     MOSUNNY   33   5  30 NW7       30.32R WCI  27
BROOMFIELD     MOSUNNY   36   7  30 CALM      30.32R
FORT COLLINS   SUNNY     34  14  44 N14       30.33R WCI  24
LONGMONT       SUNNY     36  13  38 CALM      30.34S
$$

COZ041-046-047-076>085-087-088-051900-
...PIKES PEAK/PALMER DIVIDE AND SOUTHERN FOOTHILLS...

CITY           SKY/WX    TMP DP  RH WIND       PRES   REMARKS
COLO. SPRINGS  MOSUNNY   31   9  39 NE9       30.32R WCI  23
A. F. ACADEMY  SUNNY     28   6  39 N17       30.29R WCI  16
SCHRIEVER AFB  FAIR      27  11  50 N8        30.32R WCI  18
ELLICOTT       NOT AVBL
FALCON         SUNNY     30   7  38 MISG      30.30S
FORT CARSON    SUNNY     28  13  54 SE2       30.32R
LIMON          CLOUDY    27  15  61 N10       30.33R WCI  17
MONUMENT HILL  MOSUNNY   23   7  50 NW5       30.31R WCI  17
TRINIDAD       CLOUDY    30  18  60 NW9       30.33R WCI  22
$$

COZ042>045-048>051-090-091-051900-
...NORTHEAST COLORADO...

CITY           SKY/WX    TMP DP  RH WIND       PRES   REMARKS
GREELEY ARPT   SUNNY     28  18  64 CALM      30.36R
AKRON          CLOUDY    26  15  63 W13       30.31R WCI  15
BURLINGTON     SUNNY     30  18  60 NW18      30.31R WCI  18
WRAY           SUNNY     34  20  56 NW21      30.31S WCI  22
STERLING       CLOUDY    32  19  59 NW14      30.31S WCI  22
HOLYOKE        SUNNY     36  21  55 NW15G22   30.29F
FORT MORGAN    CLOUDY    29  15  55 W9        30.35R WCI  20
$$

COZ086-089-092>099-051900-
...SOUTHEAST COLORADO...

CITY           SKY/WX    TMP DP  RH WIND       PRES   REMARKS
PUEBLO         SUNNY     38  13  35 N9        30.36R
LA JUNTA       MOSUNNY   36  21  54 N10       30.35R
LAMAR          CLOUDY    39  23  52 N20       30.31R
SPRINGFIELD      N/A     34  26  72 N25G32    30.27S WCI  21
$$



USA.gov is the U.S. government's official web portal to all federal, state and local government web resources and services.